Weather in Fasova

Ukraine / Kyiv Region     50°22′31″N   29°48′54″E
temp.,
°C
wind,
m/s
gust,
m/s
humid.,
%
clouds,
%
prec.,
mm/h
press.,
hPa
HPBL,
m
7 march, sun
sun723:00−4wsw38710 0.0 1026230
02:00−3wsw511720 0.0 1024399
05:00−4sw613790 0.0 1021424
08:00−2wsw8157536 0.0 1019768
11:00+1w10166785 0.0 10161296
14:00+3w11166593 0.0 10141470
17:00+2w81669100 0.0 10121367
20:000w7148399 0.0 1012921
8 march, mon
mon823:00−1w7158120 0.0 1011832
02:00−1w7148552 0.0 1010750
05:00−1w6128795 0.0 1010744
08:00−1wnw6107197 0.2 10111130
11:000wnw695435 0.0 10121419
14:00+1wnw795057 0.1 10111794
17:00−1wnw61164100 0.5 10121616
20:00−3nw5116450 0.5 1015600
9 march, tue
tue923:00−3nw49700 0.0 1016579
02:00−3wnw477613 0.0 1017716
05:00−4nw478597 0.1 1018586
08:00−4n467799 0.4 1020712
11:00−3nnw345699 0.0 10221044
14:00−1nnw334388 0.0 10231396
17:00−2nnw334894 0.0 10221127
20:00−3nne125590 0.0 102422
10 march, wed
wed1023:00−4ese246486 0.0 1025140
02:00−4se357870 0.0 1025178
05:00−5se358186 0.0 1024209
08:00−4sse457793 0.0 1025337
11:00−1sse345878 0.0 1025907
14:000sse334883 0.0 10241326
17:00−1sse235296 0.0 1024956
20:00−3sse346273 0.0 1025112
11 march, thu
thu1123:00−3sse35630 0.0 1026185
02:00−4s35670 0.0 1026164
05:00−4s356636 0.0 1025168
08:00−3s356267 0.0 1026381
11:00−1s4658100 0.0 1025792
14:00+1ssw565198 0.0 10231281
17:00+1s485392 0.0 1022591
20:00−1sse6125896 0.0 1022453